THORAD AGENA D DEB, 22532

Orbit data source: Space-Track

THORAD AGENA D DEB, 22532 is space debris in SSO originally from a launch on Wed, 08 Apr 1970 UTC launched from the Air Force Western Test Range (AFWTR). Debris objects in space refer to the collection of defunct objects orbiting the Earth. Examples of debris include non-operational satellites, rocket bodies, and fragments generated from explosions, collisions, or faulty payload assembly.

Loading next visibility...
Identifier
22532, 1970-025QN
Orbit
SSO
Country
Flag of USUS
Related business
Manufacturer
Unknown
Mission
Spacecraft
Bus & Motor
Unknown
Mass
Unknown
Launch date (UTC)
1970-04-08 (56 years ago)
Launch vehicle
Unknown
Launch site
Air Force Western Test Range (AFWTR)
Object type
Payload
Rocket body
Debris
Shape & HBR
Unknown shape, 0.1 m
Radar Cross Section
Small (<0.1 m²)

Expand to show TLE details & history
Last TLE update: 13 hours ago

TLE from 13 hours ago
0 THORAD AGENA D DEB
1 22532U 70025QN  25287.23797880  .00001485  00000-0  17509-2 0  9998
2 22532 100.0877  99.3747 0004367 131.3095 305.9182 13.69807954618971
Epoch: 2025-10-14T05:42Z
TLE epoch observation values (Epoch: 2025-10-14T05:42:41.368Z)
Latitude
73.81256°
Longitude
-46.89359°
Altitude
1,010.954 km
Speed
7.354 km/s
True Right ascension
04h 07m 13s
True Declination
73° 43' 24"
Sunlit
Object was in daylight at epoch
Visualization orbit readout
Latitude
Unknown
Longitude
Unknown
Altitude
Unknown
Speed
Unknown
Apparent Right ascension
Unknown
Apparent Declination
Unknown
Sunlit
N/A
Visualization observer readout
Local Sidereal Time
12:59:17
Azimuth
Unknown
Elevation
Unknown
Doppler factor
Unknown
Orbital elements
Apogee altitude
1,000.777 km
Perigee altitude
994.335 km
Semi-major axis
7,375.693 km
Eccentricity
0.00044
Inclination
100.0877°
RAAN
99.3747°
Arg. of periapsis
131.3095°
True anomaly
305.87766°
Mean anomaly
305.9182°
Eccentric anomaly
305.89793°
Mean motion
3.42641 °/min
Orbital period
105.07 mins
BSTAR
0.0017509

Documentation

Showing up to 5 results
|